DW9246 Weather Reports


Display with metric or nautical units.
time (UTC)temp
F
wind
direction
speed
MPH
gust
MPH
rain 1hr
in
rain 24hr
in
rain mn
in
humidity
%
barometer
mb
20210420045104 52 28 2.0 4.0 0.00 0.00 0.00 72 1014.9
20210420044045 52 23 3.0 4.0 0.00 0.00 0.00 72 1015.2
20210420043034 52 40 2.0 5.0 0.00 0.00 0.00 71 1015.2
20210420042231 52 31 3.0 4.0 0.00 0.00 0.00 71 1015.2
20210420041025 52 48 3.0 5.0 0.00 0.00 0.00 71 1015.3
20210420040036 52 59 3.0 7.0 0.00 0.00 0.00 71 1015.1
20210420035413 52 45 2.0 5.0 0.00 0.00 0.00 71 1015.2
20210420034051 52 48 3.0 4.0 0.00 0.00 0.00 71 1015.3
20210420033040 52 50 2.0 5.0 0.00 0.00 0.00 71 1015.3
20210420032335 52 47 2.0 4.0 0.00 0.00 0.00 71 1015.3
20210420031020 51 33 2.0 4.0 0.00 0.00 0.00 72 1015.4
20210420030024 51 29 2.0 4.0 0.00 0.00 0.00 72 1015.4
20210420025124 51 41 3.0 7.0 0.00 0.00 0.00 73 1015.4
20210420024017 50 352 3.0 4.0 0.00 0.00 0.00 74 1015.4
20210420023020 50 351 3.0 4.0 0.00 0.00 0.00 74 1015.5
20210420022117 50 350 3.0 4.0 0.00 0.00 0.00 74 1015.6
20210420021026 50 352 3.0 4.0 0.00 0.00 0.00 73 1015.7
20210420020027 50 49 2.0 4.0 0.00 0.00 0.00 72 1015.8
20210420015121 51 49 1.0 2.0 0.00 0.00 0.00 71 1015.8
20210420014020 51 50 1.0 3.0 0.00 0.00 0.00 72 1015.8
20210420013022 51 50 2.0 3.0 0.00 0.00 0.00 72 1015.8
20210420012421 51 50 1.0 3.0 0.00 0.00 0.00 72 1015.9
20210420011022 52 50 2.0 3.0 0.00 0.00 0.00 72 1016.0
20210420010047 52 50 2.0 4.0 0.00 0.00 0.00 71 1016.2
20210420005255 52 50 2.0 4.0 0.00 0.00 0.00 71 1016.3
20210420004038 52 47 3.0 5.0 0.00 0.00 0.00 72 1016.4
20210420003025 52 353 2.0 5.0 0.00 0.00 0.00 73 1016.5
20210420002300 52 339 1.0 3.0 0.00 0.00 0.00 73 1016.7
20210420001038 51 339 1.0 3.0 0.00 0.00 0.00 73 1016.8
20210420000036 51 339 2.0 4.0 0.00 0.00 0.00 74 1017.0
20210419235301 51 339 3.0 4.0 0.00 0.00 0.00 74 1016.9
20210419234015 51 339 3.0 5.0 0.00 0.00 0.00 73 1017.0
20210419233117 51 339 3.0 5.0 0.00 0.00 0.00 73 1017.0
20210419232452 52 338 3.0 4.0 0.00 0.00 0.00 73 1017.0
20210419231040 52 319 2.0 4.0 0.00 0.00 0.00 73 1017.1
20210419230051 52 335 2.0 4.0 0.00 0.00 0.00 73 1017.0
20210419225518 52 349 1.0 4.0 0.00 0.00 0.00 73 1017.2
20210419224023 53 0 0.0 0.0 0.00 0.00 0.00 73 1017.2
20210419223025 53 0 0.0 0.0 0.00 0.00 0.00 73 1017.3
20210419222209 53 42 1.0 2.0 0.00 0.00 0.00 73 1017.3
20210419221025 53 42 1.0 3.0 0.00 0.00 0.00 72 1017.4
20210419220033 53 0 0.0 0.0 0.00 0.00 0.00 71 1017.3
20210419215138 53 42 1.0 3.0 0.00 0.00 0.00 72 1017.4
20210419214018 54 46 1.0 3.0 0.00 0.00 0.00 72 1017.4
20210419213037 54 46 2.0 6.0 0.00 0.00 0.00 72 1017.3
20210419212238 54 50 3.0 5.0 0.00 0.00 0.00 72 1017.2
20210419211026 54 57 3.0 7.0 0.00 0.00 0.00 72 1017.3
20210419210059 54 44 2.0 5.0 0.00 0.00 0.00 72 1017.1
20210419205555 54 51 3.0 7.0 0.00 0.00 0.00 73 1017.2
20210419204031 54 55 4.0 9.0 0.00 0.00 0.00 73 1017.2
20210419203033 54 60 3.0 5.0 0.00 0.00 0.00 73 1017.2
20210419202143 54 77 3.0 5.0 0.00 0.00 0.00 73 1017.2
20210419201030 54 74 4.0 11.0 0.00 0.00 0.00 73 1017.2
20210419200032 54 76 5.0 9.0 0.00 0.00 0.00 73 1017.2
20210419195119 54 80 5.0 9.0 0.00 0.00 0.00 73 1017.2
20210419194017 54 82 5.0 9.0 0.00 0.00 0.00 73 1017.1
20210419193027 54 91 4.0 8.0 0.00 0.00 0.00 73 1017.0
20210419192159 55 96 5.0 9.0 0.00 0.00 0.00 72 1016.8
20210419191025 55 112 3.0 8.0 0.00 0.00 0.00 71 1016.8
20210419190018 55 120 3.0 7.0 0.00 0.00 0.00 70 1016.7
20210419185054 55 104 4.0 8.0 0.00 0.00 0.00 69 1016.6
20210419184033 55 115 3.0 6.0 0.00 0.00 0.00 67 1016.5
20210419183026 55 103 3.0 7.0 0.00 0.00 0.00 66 1016.5
20210419182322 55 117 3.0 5.0 0.00 0.00 0.00 67 1016.5
20210419181052 55 132 3.0 6.0 0.00 0.00 0.00 67 1016.7
20210419180043 55 130 3.0 8.0 0.00 0.00 0.00 67 1016.6
20210419175241 55 150 5.0 9.0 0.00 0.00 0.00 67 1016.6
20210419174023 56 147 5.0 8.0 0.00 0.00 0.00 68 1016.7
20210419173046 56 154 5.0 10.0 0.00 0.00 0.00 67 1016.6
20210419172256 56 150 6.0 10.0 0.00 0.00 0.00 67 1016.5
20210419171035 57 164 6.0 10.0 0.00 0.00 0.00 66 1016.4
20210419170019 57 168 7.0 12.0 0.00 0.00 0.00 67 1016.5
20210419165257 57 160 6.0 11.0 0.00 0.00 0.00 64 1016.3
20210419164021 58 146 6.0 12.0 0.00 0.00 0.00 63 1016.4
20210419163026 58 150 5.0 9.0 0.00 0.00 0.00 61 1016.2
20210419162112 58 165 6.0 10.0 0.00 0.00 0.00 61 1016.2
20210419161025 58 166 7.0 10.0 0.00 0.00 0.00 63 1016.2
20210419160022 58 145 7.0 14.0 0.00 0.00 0.00 64 1016.3
20210419155214 59 160 5.0 11.0 0.00 0.00 0.00 61 1016.1
20210419154029 58 164 7.0 12.0 0.00 0.00 0.00 62 1016.2
20210419153025 58 166 7.0 12.0 0.00 0.00 0.00 61 1016.1
20210419152130 58 166 6.0 11.0 0.00 0.00 0.00 60 1016.1
20210419151028 58 174 6.0 12.0 0.00 0.00 0.00 58 1016.2
20210419150026 58 176 7.0 12.0 0.00 0.00 0.00 59 1016.4
20210419145448 59 173 8.0 14.0 0.00 0.00 0.00 58 1016.3
20210419144018 59 163 8.0 14.0 0.00 0.00 0.00 57 1016.2
20210419143023 59 170 9.0 14.0 0.00 0.00 0.00 57 1016.2
20210419142112 60 188 7.0 12.0 0.00 0.00 0.00 57 1016.4
20210419141017 59 174 9.0 16.0 0.00 0.00 0.00 57 1016.4
20210419140021 60 173 8.0 17.0 0.00 0.00 0.00 59 1016.5
20210419135208 60 165 6.0 13.0 0.00 0.00 0.00 56 1016.5
20210419134029 60 159 7.0 14.0 0.00 0.00 0.00 58 1016.6
20210419133033 60 164 7.0 15.0 0.00 0.00 0.00 57 1016.7
20210419132045 60 164 8.0 13.0 0.00 0.00 0.00 59 1016.8
20210419131027 60 164 8.0 15.0 0.00 0.00 0.00 60 1016.9
20210419130023 60 168 9.0 18.0 0.00 0.00 0.00 59 1016.7
20210419125312 60 181 8.0 16.0 0.00 0.00 0.00 58 1016.8
20210419124020 60 166 8.0 13.0 0.00 0.00 0.00 57 1016.6
20210419123028 60 163 7.0 13.0 0.00 0.00 0.00 57 1016.7
20210419122047 60 178 8.0 14.0 0.00 0.00 0.00 58 1016.7
20210419121020 60 164 9.0 16.0 0.00 0.00 0.00 58 1016.7
20210419120021 60 177 8.0 14.0 0.00 0.00 0.00 59 1016.7
20210419115158 60 166 8.0 15.0 0.00 0.00 0.00 58 1016.8
20210419114025 60 169 9.0 14.0 0.00 0.00 0.00 59 1016.8
20210419113023 60 163 6.0 11.0 0.00 0.00 0.00 56 1016.9
20210419112252 59 165 9.0 16.0 0.00 0.00 0.00 58 1016.9
20210419111021 60 166 7.0 13.0 0.00 0.00 0.00 56 1017.0
20210419110036 60 155 8.0 14.0 0.00 0.00 0.00 56 1017.1
20210419105134 60 147 6.0 13.0 0.00 0.00 0.00 54 1017.0
20210419104016 60 129 5.0 10.0 0.00 0.00 0.00 55 1017.1
20210419103038 60 150 7.0 12.0 0.00 0.00 0.00 55 1017.1
20210419102039 60 176 6.0 12.0 0.00 0.00 0.00 56 1017.3
20210419101018 60 171 2.0 8.0 0.00 0.00 0.00 48 1017.4
20210419100019 59 126 5.0 11.0 0.00 0.00 0.00 48 1017.4
20210419095129 59 178 4.0 9.0 0.00 0.00 0.00 50 1017.4
20210419094020 59 165 5.0 11.0 0.00 0.00 0.00 49 1017.4
20210419093022 59 174 4.0 9.0 0.00 0.00 0.00 48 1017.5
20210419092050 58 141 4.0 9.0 0.00 0.00 0.00 49 1017.5
20210419091027 58 113 4.0 9.0 0.00 0.00 0.00 51 1017.6
20210419090033 58 105 4.0 9.0 0.00 0.00 0.00 52 1017.6
20210419085111 57 95 4.0 8.0 0.00 0.00 0.00 53 1017.6
20210419084020 56 116 4.0 9.0 0.00 0.00 0.00 57 1017.7
20210419083033 56 99 4.0 10.0 0.00 0.00 0.00 56 1017.7
20210419082020 56 100 5.0 10.0 0.00 0.00 0.00 60 1017.8
20210419081024 55 119 4.0 10.0 0.00 0.00 0.00 61 1017.7
20210419080022 54 78 5.0 9.0 0.00 0.00 0.00 62 1017.9
20210419075108 54 90 6.0 10.0 0.00 0.00 0.00 63 1017.8
20210419074021 54 94 5.0 9.0 0.00 0.00 0.00 65 1017.9
20210419073047 53 90 5.0 10.0 0.00 0.00 0.00 64 1018.0
20210419072113 53 80 4.0 9.0 0.00 0.00 0.00 65 1017.9
20210419071017 52 79 5.0 9.0 0.00 0.00 0.00 66 1017.9
20210419070030 52 69 5.0 10.0 0.00 0.00 0.00 67 1017.9
20210419065133 52 70 5.0 10.0 0.00 0.00 0.00 66 1018.1
20210419064025 52 65 5.0 10.0 0.00 0.00 0.00 67 1017.9
20210419063028 51 63 5.0 9.0 0.00 0.00 0.00 67 1017.9
20210419062151 51 64 4.0 8.0 0.00 0.00 0.00 67 1017.8
20210419061017 50 56 3.0 6.0 0.00 0.00 0.00 67 1017.7
20210419060030 50 58 3.0 5.0 0.00 0.00 0.00 67 1017.6
20210419055122 50 45 4.0 8.0 0.00 0.00 0.00 67 1017.5
20210419054021 49 36 4.0 8.0 0.00 0.00 0.00 67 1017.4
20210419053034 48 32 4.0 8.0 0.00 0.00 0.00 68 1017.4
20210419052106 47 34 3.0 9.0 0.00 0.00 0.00 68 1017.4
20210419051023 45 357 3.0 5.0 0.00 0.00 0.00 68 1017.4
20210419050029 45 353 3.0 5.0 0.00 0.00 0.00 65 1017.3